When you browse on this site, cookies collect data to enhance your experience and personalize the content and advertising you see.
Visit our Privacy Policy to learn more. By continuing to use the site, you agree to this use of cookies and data.
  • In Austria
  • List of Countries
  • For 7 days
  • Water Temperature
  • Weather Map
  • News
  • Weather Widgets
  • user-avatar
    Login

    Hourly Weather Konstantyna

    Today, 5 December, Thursday

    Time Temperature Precipitation Wind Pressure Humidity
    00:00 +9°C° 0 mm 3 mps 706 mmHg 78%
    01:00 +9°C° 0 mm 3 mps 707 mmHg 79%
    02:00 +9°C° 0 mm 3 mps 707 mmHg 79%
    03:00 +9°C° 0 mm 2 mps 707 mmHg 80%
    04:00 +8°C° 0 mm 2 mps 707 mmHg 80%
    05:00 +8°C° 0 mm 2 mps 708 mmHg 81%
    06:00 +8°C° 0 mm 2 mps 709 mmHg 82%
    07:00 +9°C° 0 mm 2 mps 709 mmHg 75%
    08:00 +12°C° 0 mm 2 mps 710 mmHg 68%
    09:00 +13°C° 0 mm 2 mps 710 mmHg 61%
    10:00 +13°C° 0 mm 3 mps 711 mmHg 56%
    11:00 +16°C° 0 mm 3 mps 711 mmHg 52%
    12:00 +17°C° 0 mm 4 mps 711 mmHg 48%
    13:00 +17°C° 0 mm 3 mps 711 mmHg 49%
    14:00 +17°C° 0 mm 3 mps 711 mmHg 51%
    15:00 +16°C° 0 mm 2 mps 711 mmHg 52%
    16:00 +15°C° 0 mm 2 mps 711 mmHg 55%
    17:00 +14°C° 0 mm 1 mps 712 mmHg 59%
    18:00 +13°C° 0 mm 1 mps 712 mmHg 63%
    19:00 +13°C° 0 mm 1 mps 712 mmHg 63%
    20:00 +12°C° 0 mm 1 mps 712 mmHg 63%
    21:00 +12°C° 0 mm 1 mps 712 mmHg 63%
    22:00 +12°C° 0 mm 1 mps 713 mmHg 63%
    23:00 +12°C° 0 mm 1 mps 713 mmHg 63%

    Tomorrow, 6 December, Friday

    Time Temperature Precipitation Wind Pressure Humidity
    00:00 +12°C° 0 mm 1 mps 713 mmHg 63%
    01:00 +11°C° 0 mm 1 mps 713 mmHg 64%
    02:00 +11°C° 0 mm 1 mps 712 mmHg 64%
    03:00 +11°C° 0 mm 1 mps 712 mmHg 64%
    04:00 +11°C° 0 mm 1 mps 712 mmHg 65%
    05:00 +11°C° 0 mm 1 mps 712 mmHg 65%
    06:00 +10°C° 0 mm 1 mps 713 mmHg 65%
    07:00 +12°C° 0 mm 1 mps 713 mmHg 62%
    08:00 +13°C° 0 mm 1 mps 714 mmHg 58%
    09:00 +15°C° 0 mm 1 mps 714 mmHg 54%
    10:00 +16°C° 0 mm 1 mps 714 mmHg 50%
    11:00 +18°C° 0 mm 1 mps 714 mmHg 46%
    12:00 +19°C° 0 mm 1 mps 714 mmHg 42%
    13:00 +19°C° 0 mm 1 mps 714 mmHg 42%
    14:00 +19°C° 0 mm 1 mps 713 mmHg 42%
    15:00 +19°C° 0 mm 1 mps 713 mmHg 42%
    16:00 +15°C° 0 mm 0 mps 713 mmHg 47%
    17:00 +13°C° 0 mm 0 mps 713 mmHg 51%
    18:00 +11°C° 0 mm 0 mps 713 mmHg 56%
    19:00 +11°C° 0 mm 0 mps 713 mmHg 57%
    20:00 +11°C° 0 mm 0 mps 713 mmHg 58%
    21:00 +10°C° 0 mm 0 mps 713 mmHg 59%
    22:00 +10°C° 0 mm 0 mps 713 mmHg 59%
    23:00 +11°C° 0 mm 1 mps 713 mmHg 59%

    Day after tomorrow, 7 December, Saturday

    Time Temperature Precipitation Wind Pressure Humidity
    00:00 +11°C° 0 mm 1 mps 713 mmHg 59%
    01:00 +11°C° 0 mm 1 mps 712 mmHg 58%
    02:00 +10°C° 0 mm 1 mps 712 mmHg 57%
    03:00 +10°C° 0 mm 1 mps 712 mmHg 56%
    04:00 +10°C° 0 mm 1 mps 712 mmHg 57%
    05:00 +10°C° 0 mm 1 mps 712 mmHg 57%
    06:00 +10°C° 0 mm 1 mps 712 mmHg 57%
    07:00 +11°C° 0 mm 1 mps 713 mmHg 52%
    08:00 +13°C° 0 mm 1 mps 713 mmHg 48%
    09:00 +15°C° 0 mm 1 mps 714 mmHg 43%
    10:00 +16°C° 0 mm 1 mps 714 mmHg 40%
    11:00 +18°C° 0 mm 1 mps 713 mmHg 38%
    12:00 +19°C° 0 mm 1 mps 713 mmHg 35%
    13:00 +19°C° 0 mm 1 mps 713 mmHg 38%
    14:00 +19°C° 0 mm 1 mps 713 mmHg 41%
    15:00 +19°C° 0 mm 1 mps 712 mmHg 44%
    16:00 +16°C° 0 mm 1 mps 712 mmHg 49%
    17:00 +13°C° 0 mm 0 mps 712 mmHg 55%
    18:00 +12°C° 0 mm 0 mps 712 mmHg 61%
    19:00 +11°C° 0 mm 0 mps 712 mmHg 62%
    20:00 +11°C° 0 mm 0 mps 713 mmHg 63%
    21:00 +11°C° 0 mm 0 mps 713 mmHg 64%
    22:00 +10°C° 0 mm 0 mps 713 mmHg 67%
    23:00 +11°C° 0 mm 1 mps 713 mmHg 69%

    8 December, Sunday

    Time Temperature Precipitation Wind Pressure Humidity
    00:00 +10°C° 0 mm 1 mps 713 mmHg 72%
    01:00 +10°C° 0 mm 1 mps 713 mmHg 74%
    02:00 +9°C° 0 mm 0 mps 713 mmHg 76%
    03:00 +9°C° 0 mm 0 mps 713 mmHg 78%
    04:00 +8°C° 0 mm 0 mps 713 mmHg 79%
    05:00 +8°C° 0 mm 0 mps 713 mmHg 81%
    06:00 +9°C° 0 mm 1 mps 713 mmHg 82%
    07:00 +10°C° 0 mm 1 mps 713 mmHg 77%
    08:00 +12°C° 0 mm 1 mps 714 mmHg 72%
    09:00 +13°C° 0 mm 1 mps 715 mmHg 67%
    10:00 +14°C° 0 mm 1 mps 715 mmHg 62%
    11:00 +15°C° 0 mm 2 mps 715 mmHg 58%
    12:00 +16°C° 0 mm 2 mps 714 mmHg 53%
    13:00 +16°C° 0 mm 2 mps 714 mmHg 54%
    14:00 +15°C° 0 mm 2 mps 714 mmHg 56%
    15:00 +15°C° 0 mm 2 mps 714 mmHg 57%
    16:00 +14°C° 0 mm 2 mps 714 mmHg 67%
    17:00 +12°C° 0 mm 1 mps 714 mmHg 76%
    18:00 +11°C° 0 mm 1 mps 714 mmHg 86%
    19:00 +10°C° 0 mm 1 mps 714 mmHg 88%
    20:00 +10°C° 0 mm 1 mps 714 mmHg 90%
    21:00 +9°C° 0 mm 0 mps 715 mmHg 92%
    22:00 +9°C° 0 mm 1 mps 715 mmHg 92%
    23:00 +9°C° 0 mm 1 mps 715 mmHg 92%

    9 December, Monday

    Time Temperature Precipitation Wind Pressure Humidity
    00:00 +9°C° 0 mm 1 mps 714 mmHg 92%
    01:00 +9°C° 0 mm 1 mps 714 mmHg 91%
    02:00 +8°C° 0 mm 1 mps 714 mmHg 91%
    03:00 +8°C° 0 mm 1 mps 714 mmHg 90%
    04:00 +8°C° 0 mm 1 mps 714 mmHg 89%
    05:00 +8°C° 0 mm 1 mps 714 mmHg 87%
    06:00 +8°C° 0 mm 1 mps 714 mmHg 86%
    07:00 +9°C° 0 mm 1 mps 715 mmHg 78%
    08:00 +10°C° 0 mm 2 mps 715 mmHg 70%
    09:00 +12°C° 0 mm 2 mps 716 mmHg 63%
    10:00 +13°C° 0 mm 2 mps 716 mmHg 62%
    11:00 +13°C° 0 mm 3 mps 716 mmHg 61%
    12:00 +14°C° 0 mm 4 mps 716 mmHg 60%
    13:00 +13°C° 0 mm 3 mps 716 mmHg 63%
    14:00 +13°C° 0 mm 3 mps 715 mmHg 67%
    15:00 +13°C° 0 mm 3 mps 715 mmHg 70%
    16:00 +13°C° 0 mm 2 mps 715 mmHg 76%
    17:00 +10°C° 0 mm 2 mps 715 mmHg 82%
    18:00 +10°C° 0 mm 1 mps 715 mmHg 88%
    19:00 +10°C° 0 mm 1 mps 716 mmHg 89%
    20:00 +9°C° 0 mm 1 mps 716 mmHg 90%
    21:00 +9°C° 0 mm 1 mps 716 mmHg 91%
    22:00 +9°C° 0 mm 1 mps 716 mmHg 91%
    23:00 +9°C° 0 mm 1 mps 716 mmHg 91%

    10 December, Tuesday

    Time Temperature Precipitation Wind Pressure Humidity
    00:00 +9°C° 0 mm 1 mps 716 mmHg 91%
    01:00 +8°C° 0 mm 1 mps 716 mmHg 91%
    02:00 +8°C° 0 mm 1 mps 715 mmHg 92%
    03:00 +8°C° 0 mm 1 mps 715 mmHg 92%
    04:00 +8°C° 0 mm 1 mps 715 mmHg 92%
    05:00 +8°C° 0 mm 1 mps 715 mmHg 93%
    06:00 +7°C° 0 mm 1 mps 715 mmHg 93%
    07:00 +9°C° 0 mm 1 mps 716 mmHg 88%
    08:00 +10°C° 0 mm 1 mps 716 mmHg 84%
    09:00 +12°C° 0 mm 1 mps 717 mmHg 79%
    10:00 +12°C° 0 mm 1 mps 717 mmHg 73%
    11:00 +13°C° 0 mm 1 mps 716 mmHg 67%
    12:00 +14°C° 0 mm 1 mps 716 mmHg 61%
    13:00 +15°C° 0 mm 1 mps 716 mmHg 59%
    14:00 +15°C° 0 mm 1 mps 716 mmHg 58%
    15:00 +14°C° 0 mm 0 mps 716 mmHg 56%
    16:00 +13°C° 0 mm 0 mps 716 mmHg 63%
    17:00 +11°C° 0 mm 0 mps 715 mmHg 70%
    18:00 +9°C° 0 mm 0 mps 715 mmHg 76%
    19:00 +9°C° 0 mm 0 mps 715 mmHg 76%
    20:00 +10°C° 0 mm 1 mps 715 mmHg 76%
    21:00 +10°C° 0 mm 1 mps 715 mmHg 76%
    22:00 +10°C° 0 mm 1 mps 715 mmHg 74%
    23:00 +10°C° 0 mm 1 mps 715 mmHg 73%
    Show more